Home   Weather   Modena   Past weeks

Flag for Italy Past Weather in Modena, Italy — Yesterday and Last 2 Weeks

Now
86 °F

Sunny.


Feels Like: 85 °F
Forecast: 69 / 94 °F
Wind: 9 mph from East

Location: Bologna / Borgo Panigale

Current Time: Aug 16, 2017 at 7:39:22 pm

Latest Report: Aug 16, 2017 at 7:20 pm


Visibility: 10 mi

Pressure: 30.01 "Hg

Humidity: 40%

Dew Point: 59 °F

Location of ModenaLocation

Past Weather in Modena — Graph

°F

Modena Temperature Yesterday

Maximum temperature yesterday: 93 °F (at 2:50 pm)
Minimum temperature yesterday: 66 °F (at 6:20 am)
Average temperature yesterday: 80 °F

High & Low Weather Summary for the Past Weeks

 TemperatureHumidityPressure
High104 °F (Aug 4, 4:50 pm)94% (Aug 6, 10:50 pm)30.15 "Hg (Aug 6, 10:50 pm)
Low63 °F (Aug 12, 1:20 am)17% (Aug 11, 5:20 pm)29.77 "Hg (Aug 6, 5:20 pm)
Average82 °F48%29.95 "Hg
* Reported Aug 1 6:20 pm — Aug 16 6:20 pm, Modena. Weather by CustomWeather, © 2017

Note: Actual official high and low records may vary slightly from our data, if they occured in-between our weather recording intervals... More about our weather records

Advertising

Modena Weather History for the Previous 24 Hours

Scroll right to see more
 ConditionsComfort  
Time TempWeatherWind HumidityBarometerVisibility
6:20 pm
Wed, Aug 16
90 °FPassing clouds.9 mph41%30.01 "HgN/A
5:50 pm91 °FPassing clouds.8 mph36%30.01 "HgN/A
5:20 pm91 °FPassing clouds.7 mph34%30.01 "HgN/A
4:50 pm91 °FPassing clouds.9 mph34%30.01 "HgN/A
4:20 pm91 °FPassing clouds.9 mph34%30.01 "HgN/A
3:50 pm91 °FPassing clouds.9 mph36%30.01 "HgN/A
3:20 pm91 °FPassing clouds.8 mph36%30.01 "HgN/A
2:50 pm90 °FPassing clouds.9 mph38%30.01 "HgN/A
2:20 pm88 °FPassing clouds.9 mph38%30.04 "HgN/A
1:50 pm88 °FPassing clouds.8 mph38%30.04 "HgN/A
1:20 pm88 °FSunny.5 mph38%30.04 "Hg10 mi
12:50 pm88 °FSunny.6 mph35%30.04 "Hg10 mi
12:20 pm88 °FSunny.5 mph35%30.07 "Hg10 mi
11:50 am84 °FPassing clouds.5 mph40%30.07 "HgN/A
11:20 am82 °FPassing clouds.3 mph42%30.07 "HgN/A
10:50 am82 °FPassing clouds.5 mph42%30.07 "HgN/A
10:20 am84 °FPassing clouds.5 mph40%30.07 "HgN/A
9:50 am81 °FPassing clouds.5 mph45%30.07 "HgN/A
9:20 am79 °FPassing clouds.3 mph48%30.07 "HgN/A
8:50 am79 °FSunny.1 mph48%30.07 "Hg10 mi
8:20 am75 °FPassing clouds.3 mph50%30.07 "HgN/A
7:50 am73 °FSunny.6 mph57%30.04 "Hg10 mi
7:20 am72 °FPassing clouds.8 mph57%30.04 "HgN/A
6:50 am70 °FSunny.7 mph60%30.04 "Hg10 mi
6:20 am70 °FSunny.8 mph60%30.04 "Hg10 mi
5:50 am70 °FClear.6 mph60%30.04 "Hg10 mi
5:20 am72 °FClear.9 mph57%30.04 "Hg10 mi
4:50 am73 °FClear.8 mph53%30.04 "Hg10 mi
3:50 am73 °FClear.8 mph53%30.04 "Hg10 mi
2:50 am73 °FClear.7 mph53%30.04 "Hg10 mi
2:20 am75 °FClear.8 mph50%30.04 "Hg10 mi
1:50 am75 °FClear.7 mph54%30.04 "Hg10 mi
1:20 am75 °FClear.9 mph54%30.07 "Hg10 mi
12:50 am77 °FClear.9 mph51%30.07 "Hg10 mi
12:20 am75 °FClear.6 mph54%30.07 "Hg10 mi
11:50 pm
Tue, Aug 15
75 °FClear.3 mph50%30.07 "Hg10 mi
11:20 pm75 °FClear.3 mph50%30.07 "Hg10 mi
10:50 pm73 °FClear.5 mph53%30.07 "Hg10 mi
10:20 pm79 °FClear.3 mph48%30.07 "Hg10 mi
9:50 pm77 °FClear.5 mph47%30.07 "Hg10 mi
9:20 pm79 °FClear.8 mph48%30.04 "Hg10 mi
8:50 pm82 °FClear.10 mph42%30.04 "Hg10 mi
8:20 pm82 °FSunny.9 mph42%30.04 "Hg10 mi
7:50 pm86 °FSunny.14 mph38%30.04 "Hg10 mi
7:20 pm88 °FSunny.13 mph35%30.04 "Hg10 mi
Weather by CustomWeather, © 2017

See weather overviewHow to use our weather pages